sat.trackr.live / text

‹ back to catalog

STARLINK-2482

NORAD 48139 · 2021-027AZ

PAYLOAD ACTIVE UNKNOWN

§ Identity

Operator
Country
US
Launch date
2021-04-07
Launch site
AFETR
Launch vehicle
Mass (kg)
RCS (m²)

Purposes: comms

External: N2YO · Heavens-Above · Gunter

§ Orbital elements

Epoch: 2026-09-03T21:58:46.202592Z

Period
94.01 min
Inclination
53.1612°
Eccentricity
0.0001363
Mean motion
15.31703651 rev/d
Perigee alt
469.8 km
Apogee alt
471.7 km
Semi-major
6,848.9 km
B*
1.6904e-4
RAAN
43.3293°
Arg perigee
87.3898°
Mean anomaly
272.7260°
Rev number
29,999

§ Raw data

STARLINK-24821 48139U 21027AZ  26246.91581253  .00004884  00000+0  16904-3 0  99972 48139  53.1612  43.3293 0001363  87.3898 272.7260 15.31703651299991

JSON: /api/v1/satellites/48139 · /tle

For live sub-satellite position, see the globe view (requires WebGL).

§ Visibility from observer

Set your observer location to see the next 7 days of passes ≥ 10°. The values pass through the URL so the page stays shareable.

No JS? Fill the form by hand. The geolocation button needs JavaScript.